| time (UTC) | temp C | wind direction | speed KPH | gust KPH | rain 1hr cm | rain 24hr cm | rain mn cm | humidity % | barometer mb |
| 20260506134649 | 10 | 280 | 1.6 | 3.2 | 0.00 | 0.00 | 0.00 | 63 | 1011.5 |
| 20260506134145 | 11 | 323 | 8.0 | 9.7 | 0.00 | 0.00 | 0.00 | 63 | 1011.5 |
| 20260506133643 | 10 | 290 | 3.2 | 4.8 | 0.00 | 0.00 | 0.00 | 65 | 1011.6 |
| 20260506133139 | 10 | 281 | 4.8 | 4.8 | 0.00 | 0.00 | 0.00 | 65 | 1011.6 |
| 20260506132637 | 10 | 310 | 8.0 | 9.7 | 0.00 | 0.00 | 0.00 | 65 | 1011.6 |
| 20260506132133 | 10 | 355 | 4.8 | 4.8 | 0.00 | 0.00 | 0.00 | 66 | 1011.4 |
| 20260506131631 | 10 | 346 | 4.8 | 4.8 | 0.00 | 0.00 | 0.00 | 67 | 1011.3 |
| 20260506131127 | 10 | 266 | 0.0 | 0.0 | 0.00 | 0.00 | 0.00 | 68 | 1011.1 |
| 20260506130624 | 10 | 2 | 4.8 | 4.8 | 0.00 | 0.00 | 0.00 | 69 | 1011.2 |
| 20260506130122 | 10 | 293 | 1.6 | 1.6 | 0.00 | 0.00 | 0.00 | 69 | 1011.1 |
| 20260506125620 | 9 | 255 | 1.6 | 1.6 | 0.00 | 0.00 | 0.00 | 70 | 1011.0 |
| 20260506125117 | 9 | 306 | 4.8 | 4.8 | 0.00 | 0.00 | 0.00 | 71 | 1011.1 |
| 20260506124615 | 9 | 312 | 4.8 | 4.8 | 0.00 | 0.00 | 0.00 | 71 | 1011.0 |
| 20260506124113 | 8 | 304 | 4.8 | 8.0 | 0.00 | 0.00 | 0.00 | 72 | 1010.9 |
| 20260506123610 | 8 | 304 | 3.2 | 3.2 | 0.00 | 0.00 | 0.00 | 72 | 1010.7 |
| 20260506123108 | 8 | 307 | 4.8 | 4.8 | 0.00 | 0.00 | 0.00 | 72 | 1010.8 |
| 20260506122604 | 8 | 316 | 0.0 | 0.0 | 0.00 | 0.00 | 0.00 | 73 | 1010.7 |
| 20260506122103 | 8 | 339 | 4.8 | 4.8 | 0.00 | 0.00 | 0.00 | 73 | 1010.7 |
| 20260506121600 | 8 | 303 | 1.6 | 3.2 | 0.00 | 0.00 | 0.00 | 72 | 1010.7 |
| 20260506121056 | 8 | 334 | 3.2 | 3.2 | 0.00 | 0.00 | 0.00 | 72 | 1010.5 |
| 20260506120554 | 8 | 291 | 1.6 | 1.6 | 0.00 | 0.00 | 0.00 | 72 | 1010.7 |
| 20260506120051 | 8 | 304 | 1.6 | 1.6 | 0.00 | 0.00 | 0.00 | 72 | 1010.7 |
| 20260506115549 | 8 | 323 | 3.2 | 4.8 | 0.00 | 0.00 | 0.00 | 71 | 1010.6 |
| 20260506115048 | 8 | 289 | 1.6 | 1.6 | 0.00 | 0.00 | 0.00 | 71 | 1010.6 |
| 20260506114544 | 8 | 309 | 1.6 | 1.6 | 0.00 | 0.00 | 0.00 | 71 | 1010.5 |
| 20260506114043 | 8 | 289 | 0.0 | 1.6 | 0.00 | 0.00 | 0.00 | 70 | 1010.5 |
| 20260506113540 | 8 | 296 | 1.6 | 3.2 | 0.00 | 0.00 | 0.00 | 70 | 1010.5 |
| 20260506113037 | 7 | 290 | 0.0 | 1.6 | 0.00 | 0.00 | 0.00 | 70 | 1010.3 |
| 20260506112534 | 7 | 314 | 3.2 | 4.8 | 0.00 | 0.00 | 0.00 | 70 | 1010.3 |
| 20260506112031 | 7 | 301 | 1.6 | 1.6 | 0.00 | 0.00 | 0.00 | 69 | 1010.3 |
| 20260506111529 | 7 | 296 | 0.0 | 1.6 | 0.00 | 0.00 | 0.00 | 69 | 1010.2 |
| 20260506111026 | 7 | 291 | 0.0 | 1.6 | 0.00 | 0.00 | 0.00 | 69 | 1010.1 |
| 20260506110524 | 7 | 293 | 0.0 | 1.6 | 0.00 | 0.00 | 0.00 | 68 | 1009.9 |
| 20260506110021 | 7 | 287 | 0.0 | 1.6 | 0.00 | 0.00 | 0.00 | 68 | 1010.0 |
| 20260506105517 | 7 | 294 | 1.6 | 1.6 | 0.00 | 0.00 | 0.00 | 67 | 1009.6 |
| 20260506105014 | 8 | 290 | 1.6 | 1.6 | 0.00 | 0.00 | 0.00 | 67 | 1009.8 |
| 20260506104512 | 8 | 294 | 0.0 | 1.6 | 0.00 | 0.00 | 0.00 | 66 | 1009.6 |
| 20260506104010 | 8 | 289 | 0.0 | 0.0 | 0.00 | 0.00 | 0.00 | 66 | 1009.4 |
| 20260506103507 | 8 | 304 | 3.2 | 3.2 | 0.00 | 0.00 | 0.00 | 65 | 1009.3 |
| 20260506103003 | 8 | 292 | 0.0 | 1.6 | 0.00 | 0.00 | 0.00 | 65 | 1009.4 |
| 20260506102502 | 8 | 313 | 3.2 | 3.2 | 0.00 | 0.00 | 0.00 | 65 | 1009.3 |
| 20260506101959 | 8 | 323 | 3.2 | 3.2 | 0.00 | 0.00 | 0.00 | 64 | 1009.2 |
| 20260506101455 | 8 | 295 | 1.6 | 3.2 | 0.00 | 0.00 | 0.00 | 64 | 1009.0 |
| 20260506100952 | 8 | 300 | 1.6 | 1.6 | 0.00 | 0.00 | 0.00 | 64 | 1009.3 |
| 20260506100451 | 8 | 299 | 1.6 | 3.2 | 0.00 | 0.00 | 0.00 | 64 | 1008.9 |
| 20260506095948 | 8 | 293 | 1.6 | 1.6 | 0.00 | 0.00 | 0.00 | 63 | 1009.1 |
| 20260506095447 | 8 | 282 | 0.0 | 0.0 | 0.00 | 0.00 | 0.00 | 64 | 1009.3 |
| 20260506094942 | 8 | 290 | 0.0 | 1.6 | 0.00 | 0.00 | 0.00 | 62 | 1009.0 |
| 20260506094441 | 8 | 291 | 0.0 | 0.0 | 0.00 | 0.00 | 0.00 | 63 | 1008.9 |
| 20260506093938 | 8 | 284 | 0.0 | 0.0 | 0.00 | 0.00 | 0.00 | 63 | 1008.7 |
| 20260506093437 | 8 | 294 | 0.0 | 0.0 | 0.00 | 0.00 | 0.00 | 62 | 1008.6 |
| 20260506092934 | 8 | 289 | 0.0 | 1.6 | 0.00 | 0.00 | 0.00 | 62 | 1008.8 |
| 20260506092432 | 8 | 302 | 1.6 | 1.6 | 0.00 | 0.00 | 0.00 | 62 | 1008.9 |
| 20260506091928 | 8 | 304 | 1.6 | 1.6 | 0.00 | 0.00 | 0.00 | 62 | 1008.9 |
| 20260506091426 | 8 | 291 | 0.0 | 0.0 | 0.00 | 0.00 | 0.00 | 61 | 1008.9 |
| 20260506090923 | 8 | 287 | 0.0 | 1.6 | 0.00 | 0.00 | 0.00 | 61 | 1008.8 |
| 20260506090421 | 8 | 294 | 3.2 | 4.8 | 0.00 | 0.00 | 0.00 | 61 | 1008.5 |
| 20260506085917 | 8 | 317 | 1.6 | 1.6 | 0.00 | 0.00 | 0.00 | 61 | 1008.6 |
| 20260506085414 | 8 | 290 | 0.0 | 1.6 | 0.00 | 0.00 | 0.00 | 61 | 1008.6 |
| 20260506084910 | 8 | 289 | 0.0 | 0.0 | 0.00 | 0.00 | 0.00 | 61 | 1008.6 |
| 20260506084407 | 8 | 291 | 0.0 | 0.0 | 0.00 | 0.00 | 0.00 | 60 | 1008.7 |
| 20260506083903 | 8 | 288 | 1.6 | 3.2 | 0.00 | 0.00 | 0.00 | 60 | 1008.8 |
| 20260506083401 | 8 | 287 | 0.0 | 1.6 | 0.00 | 0.00 | 0.00 | 60 | 1008.6 |
| 20260506082858 | 8 | 287 | 1.6 | 1.6 | 0.00 | 0.00 | 0.00 | 60 | 1008.5 |
| 20260506082355 | 8 | 306 | 1.6 | 1.6 | 0.00 | 0.00 | 0.00 | 59 | 1008.3 |
| 20260506081851 | 9 | 284 | 1.6 | 1.6 | 0.00 | 0.00 | 0.00 | 60 | 1008.4 |
| 20260506081349 | 8 | 306 | 1.6 | 3.2 | 0.00 | 0.00 | 0.00 | 59 | 1008.4 |
| 20260506080846 | 9 | 305 | 1.6 | 1.6 | 0.00 | 0.00 | 0.00 | 60 | 1008.5 |
| 20260506080343 | 9 | 303 | 3.2 | 3.2 | 0.00 | 0.00 | 0.00 | 59 | 1008.5 |
| 20260506073327 | 9 | 302 | 1.6 | 3.2 | 0.00 | 0.00 | 0.00 | 59 | 1008.6 |
| 20260506072824 | 9 | 292 | 3.2 | 3.2 | 0.00 | 0.00 | 0.00 | 60 | 1008.6 |
| 20260506072321 | 9 | 315 | 1.6 | 3.2 | 0.00 | 0.00 | 0.00 | 60 | 1008.4 |
| 20260506071819 | 9 | 290 | 1.6 | 1.6 | 0.00 | 0.00 | 0.00 | 60 | 1008.3 |
| 20260506071317 | 9 | 292 | 4.8 | 4.8 | 0.00 | 0.00 | 0.00 | 61 | 1008.4 |
| 20260506070814 | 9 | 255 | 1.6 | 1.6 | 0.00 | 0.00 | 0.00 | 62 | 1008.5 |
| 20260506070311 | 9 | 294 | 1.6 | 1.6 | 0.00 | 0.00 | 0.00 | 62 | 1008.4 |
| 20260506062248 | 10 | 275 | 1.6 | 1.6 | 0.00 | 0.00 | 0.00 | 60 | 1008.7 |
| 20260506061743 | 10 | 270 | 0.0 | 1.6 | 0.00 | 0.00 | 0.00 | 60 | 1008.7 |
| 20260506061241 | 10 | 288 | 0.0 | 0.0 | 0.00 | 0.00 | 0.00 | 60 | 1008.7 |
| 20260506060739 | 10 | 269 | 0.0 | 0.0 | 0.00 | 0.00 | 0.00 | 60 | 1008.8 |
| 20260506060237 | 10 | 265 | 0.0 | 1.6 | 0.00 | 0.00 | 0.00 | 59 | 1008.6 |
| 20260506051208 | 10 | 245 | 1.6 | 1.6 | 0.00 | 0.00 | 0.00 | 56 | 1008.7 |
| 20260506050707 | 10 | 264 | 0.0 | 1.6 | 0.00 | 0.00 | 0.00 | 55 | 1008.8 |
| 20260506050203 | 10 | 279 | 0.0 | 0.0 | 0.00 | 0.00 | 0.00 | 55 | 1008.9 |
| 20260506044654 | 10 | 221 | 3.2 | 3.2 | 0.00 | 0.00 | 0.00 | 55 | 1008.6 |
| 20260506044151 | 10 | 270 | 0.0 | 1.6 | 0.00 | 0.00 | 0.00 | 53 | 1008.6 |
| 20260506043648 | 10 | 257 | 1.6 | 3.2 | 0.00 | 0.00 | 0.00 | 54 | 1008.8 |
| 20260506043146 | 10 | 271 | 1.6 | 3.2 | 0.00 | 0.00 | 0.00 | 55 | 1008.8 |
| 20260506042645 | 10 | 269 | 0.0 | 1.6 | 0.00 | 0.00 | 0.00 | 55 | 1008.7 |
| 20260506042143 | 10 | 270 | 0.0 | 0.0 | 0.00 | 0.00 | 0.00 | 55 | 1008.6 |
| 20260506041641 | 10 | 270 | 0.0 | 0.0 | 0.00 | 0.00 | 0.00 | 56 | 1008.7 |
| 20260506041137 | 10 | 274 | 0.0 | 0.0 | 0.00 | 0.00 | 0.00 | 55 | 1008.5 |
| 20260506040635 | 10 | 277 | 0.0 | 0.0 | 0.00 | 0.00 | 0.00 | 55 | 1008.2 |
| 20260506040132 | 10 | 277 | 0.0 | 0.0 | 0.00 | 0.00 | 0.00 | 54 | 1008.3 |
| 20260506035629 | 10 | 278 | 0.0 | 0.0 | 0.00 | 0.30 | 0.30 | 53 | 1008.2 |
| 20260506035125 | 10 | 291 | 0.0 | 0.0 | 0.00 | 0.30 | 0.30 | 54 | 1008.4 |
| 20260506034623 | 10 | 290 | 0.0 | 0.0 | 0.00 | 0.30 | 0.30 | 54 | 1008.4 |
| 20260506034119 | 10 | 284 | 0.0 | 0.0 | 0.00 | 0.30 | 0.30 | 53 | 1008.6 |
| 20260506033617 | 10 | 283 | 0.0 | 0.0 | 0.00 | 0.30 | 0.30 | 53 | 1008.5 |
| 20260506033114 | 10 | 286 | 0.0 | 0.0 | 0.00 | 0.30 | 0.30 | 53 | 1008.6 |
| 20260506032611 | 10 | 293 | 0.0 | 0.0 | 0.00 | 0.30 | 0.30 | 52 | 1008.6 |
| 20260506032108 | 10 | 270 | 0.0 | 0.0 | 0.00 | 0.30 | 0.30 | 52 | 1008.8 |
| 20260506031605 | 10 | 274 | 0.0 | 0.0 | 0.00 | 0.30 | 0.30 | 52 | 1008.8 |
| 20260506031102 | 10 | 269 | 0.0 | 1.6 | 0.00 | 0.30 | 0.30 | 51 | 1008.6 |
| 20260506030600 | 10 | 273 | 1.6 | 3.2 | 0.00 | 0.30 | 0.30 | 51 | 1008.6 |
| 20260506030057 | 10 | 271 | 0.0 | 0.0 | 0.00 | 0.30 | 0.30 | 51 | 1008.6 |
| 20260506025554 | 10 | 273 | 0.0 | 0.0 | 0.00 | 0.30 | 0.30 | 51 | 1008.5 |
| 20260506025050 | 10 | 278 | 0.0 | 0.0 | 0.00 | 0.30 | 0.30 | 51 | 1008.7 |
| 20260506024547 | 11 | 258 | 0.0 | 0.0 | 0.00 | 0.30 | 0.30 | 52 | 1008.8 |
| 20260506024044 | 11 | 272 | 0.0 | 0.0 | 0.00 | 0.30 | 0.30 | 50 | 1008.7 |
| 20260506023539 | 11 | 266 | 0.0 | 1.6 | 0.00 | 0.30 | 0.30 | 50 | 1008.5 |
| 20260506023037 | 11 | 280 | 0.0 | 1.6 | 0.00 | 0.30 | 0.30 | 50 | 1008.7 |
| 20260506022535 | 11 | 282 | 0.0 | 0.0 | 0.00 | 0.30 | 0.30 | 50 | 1008.5 |
| 20260506022032 | 11 | 274 | 0.0 | 0.0 | 0.00 | 0.30 | 0.30 | 50 | 1008.4 |
| 20260506021529 | 11 | 286 | 0.0 | 0.0 | 0.00 | 0.30 | 0.30 | 49 | 1008.3 |
| 20260506021027 | 11 | 292 | 1.6 | 3.2 | 0.00 | 0.30 | 0.30 | 49 | 1008.5 |
| 20260506020524 | 11 | 277 | 0.0 | 1.6 | 0.00 | 0.30 | 0.30 | 49 | 1008.5 |
| 20260506020021 | 11 | 295 | 1.6 | 1.6 | 0.00 | 0.30 | 0.30 | 48 | 1008.4 |
| 20260506015519 | 11 | 280 | 0.0 | 0.0 | 0.00 | 0.30 | 0.30 | 49 | 1008.2 |
| 20260506015015 | 11 | 277 | 0.0 | 0.0 | 0.00 | 0.30 | 0.30 | 49 | 1008.3 |
| 20260506014513 | 11 | 286 | 1.6 | 3.2 | 0.00 | 0.30 | 0.30 | 48 | 1008.4 |
| 20260506014009 | 11 | 277 | 1.6 | 1.6 | 0.00 | 0.30 | 0.30 | 49 | 1008.2 |
| 20260506013507 | 11 | 316 | 4.8 | 4.8 | 0.00 | 0.30 | 0.30 | 49 | 1008.1 |
| 20260506013003 | 11 | 272 | 3.2 | 3.2 | 0.00 | 0.30 | 0.30 | 50 | 1007.9 |
| 20260506012459 | 11 | 276 | 0.0 | 0.0 | 0.00 | 0.30 | 0.30 | 51 | 1008.0 |
| 20260506011956 | 11 | 295 | 1.6 | 1.6 | 0.00 | 0.30 | 0.30 | 50 | 1007.9 |
| 20260506011454 | 11 | 317 | 1.6 | 3.2 | 0.00 | 0.30 | 0.30 | 50 | 1007.9 |
| 20260506010950 | 11 | 284 | 0.0 | 1.6 | 0.00 | 0.30 | 0.30 | 51 | 1008.0 |
| 20260506010449 | 11 | 306 | 1.6 | 1.6 | 0.00 | 0.30 | 0.30 | 51 | 1008.0 |
| 20260506005945 | 11 | 286 | 3.2 | 3.2 | 0.00 | 0.30 | 0.30 | 52 | 1007.9 |
| 20260506005443 | 11 | 288 | 0.0 | 0.0 | 0.00 | 0.30 | 0.30 | 53 | 1007.9 |
| 20260506004938 | 11 | 256 | 1.6 | 1.6 | 0.00 | 0.30 | 0.30 | 54 | 1007.9 |
| 20260506004436 | 11 | 289 | 1.6 | 1.6 | 0.00 | 0.30 | 0.30 | 53 | 1007.7 |
| 20260506003932 | 11 | 291 | 1.6 | 1.6 | 0.00 | 0.30 | 0.30 | 54 | 1008.0 |
| 20260506003429 | 11 | 261 | 0.0 | 1.6 | 0.00 | 0.30 | 0.30 | 53 | 1007.8 |
| 20260506002925 | 11 | 267 | 0.0 | 1.6 | 0.00 | 0.30 | 0.30 | 52 | 1007.9 |
| 20260506002421 | 12 | 268 | 0.0 | 1.6 | 0.00 | 0.30 | 0.30 | 53 | 1007.9 |
| 20260506001917 | 12 | 271 | 1.6 | 1.6 | 0.00 | 0.30 | 0.30 | 52 | 1007.8 |
| 20260506001414 | 12 | 299 | 3.2 | 3.2 | 0.00 | 0.30 | 0.30 | 53 | 1007.8 |
| 20260506000911 | 12 | 286 | 1.6 | 1.6 | 0.00 | 0.30 | 0.30 | 53 | 1007.4 |
| 20260506000409 | 12 | 275 | 0.0 | 0.0 | 0.00 | 0.30 | 0.30 | 53 | 1007.5 |
| 20260505235905 | 12 | 290 | 3.2 | 4.8 | 0.00 | 0.30 | 0.30 | 53 | 1007.4 |
| 20260505235404 | 12 | 323 | 1.6 | 3.2 | 0.00 | 0.30 | 0.30 | 52 | 1007.3 |
| 20260505234900 | 12 | 319 | 1.6 | 3.2 | 0.00 | 0.30 | 0.30 | 53 | 1007.1 |
| 20260505234358 | 12 | 284 | 1.6 | 1.6 | 0.00 | 0.30 | 0.30 | 52 | 1007.0 |
| 20260505233854 | 12 | 264 | 1.6 | 1.6 | 0.00 | 0.30 | 0.30 | 54 | 1007.1 |
| 20260505233352 | 12 | 277 | 3.2 | 3.2 | 0.00 | 0.30 | 0.30 | 53 | 1007.0 |
| 20260505232849 | 12 | 311 | 3.2 | 3.2 | 0.00 | 0.30 | 0.30 | 52 | 1007.0 |
| 20260505232347 | 12 | 324 | 4.8 | 8.0 | 0.00 | 0.30 | 0.30 | 52 | 1007.0 |
| 20260505231843 | 12 | 286 | 4.8 | 9.7 | 0.00 | 0.30 | 0.30 | 55 | 1007.2 |
| 20260505231341 | 12 | 298 | 3.2 | 3.2 | 0.00 | 0.30 | 0.30 | 57 | 1007.0 |
| 20260505230839 | 12 | 317 | 1.6 | 1.6 | 0.00 | 0.30 | 0.30 | 59 | 1007.0 |
| 20260505230336 | 12 | 290 | 6.4 | 9.7 | 0.00 | 0.30 | 0.30 | 58 | 1007.0 |
| 20260505225833 | 12 | 351 | 6.4 | 11.3 | 0.00 | 0.30 | 0.30 | 59 | 1007.2 |
| 20260505225330 | 12 | 284 | 4.8 | 4.8 | 0.00 | 0.30 | 0.30 | 58 | 1007.0 |
| 20260505224825 | 12 | 295 | 3.2 | 8.0 | 0.00 | 0.30 | 0.30 | 58 | 1007.2 |
| 20260505224323 | 12 | 282 | 3.2 | 3.2 | 0.00 | 0.30 | 0.30 | 59 | 1007.1 |
| 20260505223820 | 12 | 279 | 1.6 | 1.6 | 0.00 | 0.30 | 0.30 | 61 | 1007.2 |
| 20260505223317 | 12 | 267 | 1.6 | 3.2 | 0.00 | 0.30 | 0.30 | 62 | 1007.3 |
| 20260505222812 | 12 | 238 | 3.2 | 8.0 | 0.00 | 0.30 | 0.30 | 64 | 1007.3 |
| 20260505222309 | 12 | 308 | 8.0 | 9.7 | 0.00 | 0.30 | 0.30 | 64 | 1007.1 |
| 20260505221806 | 12 | 279 | 1.6 | 3.2 | 0.00 | 0.30 | 0.30 | 63 | 1007.1 |
| 20260505221303 | 12 | 290 | 3.2 | 3.2 | 0.00 | 0.30 | 0.30 | 63 | 1007.1 |
| 20260505220800 | 12 | 258 | 3.2 | 3.2 | 0.00 | 0.30 | 0.30 | 63 | 1007.0 |
| 20260505220257 | 12 | 277 | 4.8 | 4.8 | 0.00 | 0.30 | 0.30 | 63 | 1007.2 |
| 20260505215755 | 13 | 219 | 4.8 | 4.8 | 0.00 | 0.30 | 0.30 | 63 | 1007.3 |
| 20260505215253 | 13 | 270 | 1.6 | 3.2 | 0.00 | 0.30 | 0.30 | 64 | 1007.2 |
| 20260505214750 | 13 | 282 | 3.2 | 3.2 | 0.00 | 0.30 | 0.30 | 64 | 1007.5 |
| 20260505214247 | 13 | 295 | 4.8 | 4.8 | 0.00 | 0.30 | 0.30 | 64 | 1007.4 |
| 20260505213744 | 13 | 277 | 0.0 | 1.6 | 0.00 | 0.30 | 0.30 | 64 | 1007.3 |
| 20260505213242 | 12 | 300 | 3.2 | 3.2 | 0.00 | 0.30 | 0.30 | 64 | 1007.3 |
| 20260505212737 | 12 | 260 | 4.8 | 8.0 | 0.00 | 0.30 | 0.30 | 64 | 1007.2 |
| 20260505212235 | 12 | 318 | 6.4 | 8.0 | 0.00 | 0.30 | 0.30 | 64 | 1007.2 |
| 20260505211732 | 12 | 316 | 6.4 | 9.7 | 0.00 | 0.30 | 0.30 | 63 | 1007.1 |
| 20260505211229 | 12 | 271 | 3.2 | 4.8 | 0.00 | 0.30 | 0.30 | 64 | 1007.0 |
| 20260505210725 | 13 | 300 | 4.8 | 4.8 | 0.00 | 0.30 | 0.30 | 64 | 1007.2 |
| 20260505210222 | 13 | 247 | 4.8 | 4.8 | 0.00 | 0.30 | 0.30 | 66 | 1007.1 |
| 20260505205720 | 12 | 304 | 8.0 | 12.9 | 0.00 | 0.30 | 0.30 | 65 | 1007.0 |
| 20260505205218 | 12 | 327 | 3.2 | 4.8 | 0.00 | 0.30 | 0.30 | 66 | 1007.2 |
| 20260505204714 | 12 | 255 | 6.4 | 8.0 | 0.00 | 0.30 | 0.30 | 66 | 1007.3 |
| 20260505204212 | 13 | 271 | 8.0 | 9.7 | 0.00 | 0.30 | 0.30 | 66 | 1007.3 |
| 20260505203709 | 12 | 288 | 3.2 | 3.2 | 0.00 | 0.30 | 0.30 | 67 | 1007.3 |
| 20260505203206 | 13 | 282 | 8.0 | 12.9 | 0.00 | 0.30 | 0.30 | 67 | 1007.1 |
| 20260505202701 | 12 | 279 | 0.0 | 1.6 | 0.00 | 0.30 | 0.30 | 68 | 1007.4 |
| 20260505202158 | 12 | 275 | 1.6 | 3.2 | 0.00 | 0.30 | 0.30 | 69 | 1007.5 |
| 20260505201654 | 12 | 235 | 6.4 | 8.0 | 0.00 | 0.30 | 0.30 | 68 | 1007.7 |
| 20260505201153 | 12 | 291 | 6.4 | 9.7 | 0.00 | 0.30 | 0.30 | 68 | 1007.3 |
| 20260505200650 | 12 | 259 | 1.6 | 3.2 | 0.00 | 0.30 | 0.30 | 69 | 1007.4 |
| 20260505200147 | 12 | 293 | 3.2 | 4.8 | 0.00 | 0.30 | 0.30 | 68 | 1007.5 |
| 20260505195643 | 12 | 248 | 9.7 | 11.3 | 0.00 | 0.30 | 0.30 | 68 | 1007.5 |
| 20260505195140 | 12 | 208 | 3.2 | 4.8 | 0.00 | 0.30 | 0.30 | 69 | 1007.5 |
| 20260505194637 | 12 | 288 | 4.8 | 4.8 | 0.00 | 0.30 | 0.30 | 69 | 1007.4 |
| 20260505194133 | 12 | 269 | 8.0 | 9.7 | 0.00 | 0.30 | 0.30 | 69 | 1007.5 |
| 20260505193630 | 12 | 228 | 6.4 | 8.0 | 0.00 | 0.30 | 0.30 | 69 | 1007.4 |
| 20260505193127 | 12 | 217 | 4.8 | 4.8 | 0.00 | 0.30 | 0.30 | 69 | 1007.7 |
| 20260505192626 | 12 | 261 | 4.8 | 8.0 | 0.00 | 0.30 | 0.30 | 70 | 1007.8 |
| 20260505192123 | 12 | 258 | 3.2 | 4.8 | 0.00 | 0.30 | 0.30 | 68 | 1007.5 |
| 20260505191621 | 12 | 239 | 4.8 | 8.0 | 0.00 | 0.30 | 0.30 | 68 | 1007.8 |
| 20260505191119 | 12 | 201 | 4.8 | 4.8 | 0.00 | 0.30 | 0.30 | 69 | 1007.8 |
| 20260505190614 | 12 | 222 | 4.8 | 9.7 | 0.00 | 0.30 | 0.30 | 69 | 1008.0 |
| 20260505190109 | 12 | 226 | 3.2 | 4.8 | 0.00 | 0.30 | 0.30 | 70 | 1007.9 |
| 20260505185607 | 12 | 289 | 4.8 | 8.0 | 0.00 | 0.30 | 0.30 | 69 | 1007.9 |
| 20260505185103 | 12 | 185 | 6.4 | 9.7 | 0.00 | 0.30 | 0.30 | 69 | 1008.0 |
| 20260505184559 | 12 | 238 | 9.7 | 12.9 | 0.00 | 0.30 | 0.30 | 69 | 1007.8 |
| 20260505184056 | 12 | 282 | 4.8 | 8.0 | 0.00 | 0.30 | 0.30 | 70 | 1007.7 |
| 20260505183553 | 12 | 227 | 4.8 | 4.8 | 0.00 | 0.30 | 0.30 | 69 | 1007.5 |
| 20260505183051 | 12 | 240 | 4.8 | 8.0 | 0.00 | 0.30 | 0.30 | 69 | 1007.3 |
| 20260505182547 | 12 | 269 | 6.4 | 9.7 | 0.00 | 0.30 | 0.30 | 70 | 1007.2 |
| 20260505182044 | 12 | 274 | 1.6 | 1.6 | 0.00 | 0.30 | 0.30 | 71 | 1007.3 |
| 20260505181540 | 12 | 211 | 4.8 | 4.8 | 0.00 | 0.30 | 0.30 | 71 | 1007.4 |
| 20260505181038 | 12 | 286 | 4.8 | 8.0 | 0.00 | 0.30 | 0.30 | 72 | 1007.4 |
| 20260505180533 | 12 | 248 | 4.8 | 9.7 | 0.00 | 0.30 | 0.30 | 72 | 1007.2 |
| 20260505180032 | 12 | 276 | 1.6 | 3.2 | 0.00 | 0.30 | 0.30 | 74 | 1007.2 |
| 20260505175531 | 12 | 270 | 0.0 | 1.6 | 0.00 | 0.30 | 0.30 | 73 | 1007.0 |
| 20260505175029 | 11 | 253 | 3.2 | 4.8 | 0.00 | 0.30 | 0.30 | 73 | 1007.2 |
| 20260505174526 | 11 | 259 | 4.8 | 8.0 | 0.00 | 0.30 | 0.30 | 74 | 1007.1 |
| 20260505174021 | 11 | 224 | 8.0 | 9.7 | 0.00 | 0.30 | 0.30 | 74 | 1007.1 |
| 20260505173519 | 11 | 239 | 1.6 | 3.2 | 0.00 | 0.30 | 0.30 | 75 | 1006.9 |
| 20260505173015 | 11 | 266 | 3.2 | 4.8 | 0.00 | 0.30 | 0.30 | 75 | 1007.1 |
| 20260505172514 | 11 | 303 | 6.4 | 8.0 | 0.00 | 0.30 | 0.30 | 75 | 1007.0 |
| 20260505172009 | 11 | 278 | 6.4 | 8.0 | 0.00 | 0.30 | 0.30 | 74 | 1007.1 |
| 20260505171505 | 11 | 266 | 6.4 | 9.7 | 0.00 | 0.30 | 0.30 | 75 | 1007.0 |
| 20260505171002 | 11 | 323 | 4.8 | 4.8 | 0.00 | 0.30 | 0.30 | 76 | 1007.1 |
| 20260505170458 | 11 | 313 | 6.4 | 8.0 | 0.00 | 0.30 | 0.30 | 75 | 1007.0 |
| 20260505165954 | 11 | 261 | 3.2 | 8.0 | 0.00 | 0.30 | 0.30 | 74 | 1006.9 |
| 20260505165450 | 11 | 302 | 4.8 | 4.8 | 0.00 | 0.30 | 0.30 | 75 | 1007.3 |
| 20260505164945 | 11 | 319 | 9.7 | 12.9 | 0.00 | 0.30 | 0.30 | 75 | 1007.3 |
| 20260505164442 | 11 | 324 | 8.0 | 9.7 | 0.00 | 0.30 | 0.30 | 73 | 1007.4 |
| 20260505163940 | 12 | 308 | 3.2 | 3.2 | 0.00 | 0.30 | 0.30 | 72 | 1007.2 |
| 20260505163439 | 12 | 289 | 6.4 | 9.7 | 0.00 | 0.30 | 0.30 | 71 | 1007.0 |
| 20260505162937 | 12 | 279 | 8.0 | 9.7 | 0.00 | 0.30 | 0.30 | 70 | 1007.2 |
| 20260505162433 | 12 | 279 | 1.6 | 3.2 | 0.00 | 0.30 | 0.30 | 70 | 1007.2 |
| 20260505161930 | 12 | 252 | 6.4 | 11.3 | 0.00 | 0.30 | 0.30 | 69 | 1007.2 |
| 20260505161426 | 13 | 269 | 8.0 | 11.3 | 0.00 | 0.30 | 0.30 | 66 | 1007.2 |
| 20260505160924 | 13 | 314 | 9.7 | 12.9 | 0.00 | 0.30 | 0.30 | 63 | 1006.8 |
| 20260505160422 | 13 | 243 | 3.2 | 4.8 | 0.00 | 0.30 | 0.30 | 62 | 1007.0 |
| 20260505153356 | 15 | 304 | 6.4 | 9.7 | 0.00 | 0.30 | 0.30 | 58 | 1006.3 |
| 20260505152852 | 15 | 234 | 3.2 | 4.8 | 0.00 | 0.30 | 0.30 | 56 | 1006.1 |
| 20260505152349 | 15 | 306 | 1.6 | 3.2 | 0.00 | 0.30 | 0.30 | 57 | 1005.8 |
| 20260505151849 | 15 | 325 | 3.2 | 4.8 | 0.00 | 0.30 | 0.30 | 57 | 1006.1 |
| 20260505151346 | 15 | 326 | 4.8 | 4.8 | 0.00 | 0.30 | 0.30 | 54 | 1006.0 |
| 20260505150843 | 15 | 295 | 3.2 | 3.2 | 0.00 | 0.30 | 0.30 | 55 | 1005.5 |
| 20260505150340 | 15 | 293 | 3.2 | 3.2 | 0.00 | 0.30 | 0.30 | 54 | 1005.5 |
| 20260505140310 | 16 | 287 | 6.4 | 9.7 | 0.00 | 0.30 | 0.30 | 63 | 1005.4 |